JBU37 KBDL-KMCO

Flight info

Callsign JBU37
Flight time 2h 18m
Altitude 36000
Route THUMB1 CCC HEADI Q97 SAWED MOXXY Q85 LPERD GTOUT1
Aircraft A321/M-SDE3FGHIRWY/LB1

Departure

Time 2026-04-22 18:42
Airport Bradley International Airport (KBDL)

Arrival

Time 2026-04-22 21:01
Airport Orlando International Airport (KMCO)
Time Latitude Longitude Altitude Speed Heading
2026-04-22 18:21 41.92925 -72.68202 210 ft 0 kts 360°
2026-04-22 18:33 41.92913 -72.68202 216 ft 4 kts
2026-04-22 18:33 41.92888 -72.68209 215 ft 4 kts 27°
2026-04-22 18:33 41.92870 -72.68231 211 ft 4 kts 69°
2026-04-22 18:33 41.92867 -72.68250 217 ft 1 kts 88°
2026-04-22 18:34 41.92867 -72.68252 216 ft 0 kts 88°
2026-04-22 18:36 41.92867 -72.68251 216 ft 1 kts 88°
2026-04-22 18:36 41.92868 -72.68225 211 ft 5 kts 88°
2026-04-22 18:36 41.92869 -72.68164 215 ft 8 kts 88°
2026-04-22 18:36 41.92874 -72.68070 214 ft 12 kts 73°
2026-04-22 18:37 41.92935 -72.67970 214 ft 16 kts 45°
2026-04-22 18:37 41.93034 -72.67909 210 ft 18 kts 332°
2026-04-22 18:37 41.93140 -72.68028 211 ft 22 kts 315°
2026-04-22 18:37 41.93252 -72.68180 216 ft 24 kts 314°
2026-04-22 18:38 41.93377 -72.68350 212 ft 27 kts 314°
2026-04-22 18:38 41.93515 -72.68538 221 ft 30 kts 314°
2026-04-22 18:38 41.93657 -72.68718 211 ft 21 kts 339°
2026-04-22 18:39 41.93910 -72.68477 211 ft 25 kts 40°
2026-04-22 18:39 41.94043 -72.68307 217 ft 27 kts 42°
2026-04-22 18:39 41.94188 -72.68128 212 ft 29 kts 43°
2026-04-22 18:39 41.94342 -72.67935 212 ft 31 kts 44°
2026-04-22 18:40 41.94501 -72.67727 217 ft 33 kts 44°
2026-04-22 18:40 41.94666 -72.67511 213 ft 34 kts 44°
2026-04-22 18:40 41.94836 -72.67288 215 ft 35 kts 44°
2026-04-22 18:40 41.94975 -72.67141 214 ft 12 kts
2026-04-22 18:41 41.94990 -72.67144 215 ft 3 kts 347°
2026-04-22 18:41 41.95024 -72.67171 219 ft 8 kts 322°
2026-04-22 18:41 41.95041 -72.67245 225 ft 10 kts 250°
2026-04-22 18:41 41.94981 -72.67330 229 ft 20 kts 224°
2026-04-22 18:42 41.94718 -72.67675 219 ft 85 kts 224°
2026-04-22 18:42 41.94155 -72.68415 221 ft 139 kts 224°
2026-04-22 18:42 41.93395 -72.69458 424 ft 160 kts 222°
2026-04-22 18:42 41.92645 -72.70502 1209 ft 153 kts 217°
2026-04-22 18:43 41.91828 -72.71401 1878 ft 152 kts 216°
2026-04-22 18:43 41.91053 -72.72397 2306 ft 162 kts 223°
2026-04-22 18:43 41.90048 -72.73115 2575 ft 173 kts 185°
2026-04-22 18:43 41.88835 -72.72794 2935 ft 188 kts 158°
2026-04-22 18:44 41.87610 -72.72004 3323 ft 203 kts 159°
2026-04-22 18:44 41.86258 -72.71161 3649 ft 223 kts 159°
2026-04-22 18:44 41.84794 -72.70256 4078 ft 239 kts 159°
2026-04-22 18:44 41.83235 -72.69304 4567 ft 252 kts 159°
2026-04-22 18:45 41.81604 -72.68320 5160 ft 260 kts 160°
2026-04-22 18:45 41.79955 -72.67324 5788 ft 266 kts 159°
2026-04-22 18:45 41.78244 -72.66286 6435 ft 272 kts 159°
2026-04-22 18:45 41.76492 -72.65221 7004 ft 280 kts 159°
2026-04-22 18:46 41.74699 -72.64134 7625 ft 285 kts 159°
2026-04-22 18:46 41.72877 -72.63041 8279 ft 289 kts 159°
2026-04-22 18:46 41.71038 -72.61919 8962 ft 292 kts 156°
2026-04-22 18:46 41.69369 -72.60321 9608 ft 299 kts 137°
2026-04-22 18:47 41.67920 -72.58291 10210 ft 304 kts 134°
2026-04-22 18:47 41.66460 -72.56150 10582 ft 318 kts 134°
2026-04-22 18:47 41.64923 -72.53920 10846 ft 334 kts 134°
2026-04-22 18:47 41.63323 -72.51624 11080 ft 350 kts 134°
2026-04-22 18:48 41.61617 -72.49190 11299 ft 366 kts 135°
2026-04-22 18:48 41.59837 -72.46660 11544 ft 380 kts 135°
2026-04-22 18:48 41.58011 -72.44062 11979 ft 387 kts 135°
2026-04-22 18:48 41.56156 -72.41436 12538 ft 390 kts 136°
2026-04-22 18:49 41.54036 -72.39175 13071 ft 390 kts 153°
2026-04-22 18:49 41.51528 -72.37883 13603 ft 387 kts 172°
2026-04-22 18:49 41.48864 -72.37711 14111 ft 382 kts 191°
2026-04-22 18:49 41.46319 -72.38616 14569 ft 379 kts 205°
2026-04-22 18:50 41.43865 -72.39922 15044 ft 382 kts 206°
2026-04-22 18:50 41.41383 -72.41241 15520 ft 386 kts 206°
2026-04-22 18:50 41.38870 -72.42532 16003 ft 389 kts 205°
2026-04-22 18:50 41.36371 -72.43786 16475 ft 392 kts 205°
2026-04-22 18:51 41.33802 -72.45059 16943 ft 395 kts 205°
2026-04-22 18:51 41.31242 -72.46313 17395 ft 399 kts 205°
2026-04-22 18:51 41.28636 -72.47602 17846 ft 401 kts 207°
2026-04-22 18:51 41.26163 -72.49293 18279 ft 399 kts 217°
2026-04-22 18:52 41.23868 -72.51362 18689 ft 400 kts 220°
2026-04-22 18:52 41.22193 -72.52953 18981 ft 401 kts 220°
2026-04-22 18:52 41.19911 -72.55107 19394 ft 404 kts 220°
2026-04-22 18:52 41.17605 -72.57262 19791 ft 406 kts 220°
2026-04-22 18:53 41.15275 -72.59417 20196 ft 409 kts 220°
2026-04-22 18:53 41.12940 -72.61569 20589 ft 411 kts 220°
2026-04-22 18:53 41.11252 -72.63121 20866 ft 413 kts 220°
2026-04-22 18:53 41.08982 -72.65207 21241 ft 415 kts 220°
2026-04-22 18:54 41.06600 -72.67395 21633 ft 417 kts 220°
2026-04-22 18:54 41.04425 -72.69397 21975 ft 419 kts 220°
2026-04-22 18:54 41.02019 -72.71605 22347 ft 421 kts 220°
2026-04-22 18:54 40.99597 -72.73822 22725 ft 423 kts 220°
2026-04-22 18:55 40.97168 -72.76048 23080 ft 426 kts 220°
2026-04-22 18:55 40.94727 -72.78286 23422 ft 428 kts 220°
2026-04-22 18:55 40.92290 -72.80558 23770 ft 429 kts 221°
2026-04-22 18:55 40.89880 -72.82901 24065 ft 431 kts 221°
2026-04-22 18:56 40.87463 -72.85256 24355 ft 433 kts 221°
2026-04-22 18:56 40.85033 -72.87618 24646 ft 434 kts 221°
2026-04-22 18:56 40.82595 -72.89994 24930 ft 436 kts 221°
2026-04-22 18:56 40.80147 -72.92374 25211 ft 438 kts 221°
2026-04-22 18:57 40.77716 -72.94734 25489 ft 440 kts 221°
2026-04-22 18:57 40.75242 -72.97135 25753 ft 441 kts 221°
2026-04-22 18:57 40.72763 -72.99538 26000 ft 443 kts 221°
2026-04-22 18:57 40.70269 -73.01953 26260 ft 445 kts 221°
2026-04-22 18:58 40.67772 -73.04369 26516 ft 447 kts 221°
2026-04-22 18:58 40.65264 -73.06790 26775 ft 448 kts 221°
2026-04-22 18:58 40.62740 -73.09225 27041 ft 450 kts 221°
2026-04-22 18:58 40.60209 -73.11669 27285 ft 452 kts 221°
2026-04-22 18:59 40.57664 -73.14122 27535 ft 453 kts 221°
2026-04-22 18:59 40.55147 -73.16542 27758 ft 455 kts 221°
2026-04-22 18:59 40.52584 -73.19005 27992 ft 457 kts 221°
2026-04-22 18:59 40.50013 -73.21474 28211 ft 458 kts 221°
2026-04-22 19:00 40.47429 -73.23952 28446 ft 460 kts 221°
2026-04-22 19:00 40.44845 -73.26429 28728 ft 459 kts 221°
2026-04-22 19:00 40.42266 -73.28899 29039 ft 459 kts 221°
2026-04-22 19:00 40.39689 -73.31365 29331 ft 458 kts 221°
2026-04-22 19:01 40.37111 -73.33818 29635 ft 457 kts 221°
2026-04-22 19:01 40.34545 -73.36266 29956 ft 456 kts 221°
2026-04-22 19:01 40.31978 -73.38714 30232 ft 456 kts 221°
2026-04-22 19:01 40.29421 -73.41153 30442 ft 455 kts 221°
2026-04-22 19:02 40.26862 -73.43599 30683 ft 455 kts 221°
2026-04-22 19:02 40.24307 -73.46039 30885 ft 455 kts 221°
2026-04-22 19:02 40.21745 -73.48479 31102 ft 454 kts 221°
2026-04-22 19:02 40.19189 -73.50908 31305 ft 454 kts 221°
2026-04-22 19:03 40.16661 -73.53304 31521 ft 454 kts 221°
2026-04-22 19:03 40.15088 -73.54795 31637 ft 454 kts 221°
2026-04-22 19:03 40.12561 -73.57187 31837 ft 454 kts 221°
2026-04-22 19:03 40.10004 -73.59608 32044 ft 454 kts 221°
2026-04-22 19:04 40.07447 -73.62028 32254 ft 454 kts 221°
2026-04-22 19:04 40.04889 -73.64441 32447 ft 454 kts 221°
2026-04-22 19:04 40.02331 -73.66857 32656 ft 454 kts 221°
2026-04-22 19:04 39.99773 -73.69271 32833 ft 454 kts 221°
2026-04-22 19:05 39.97193 -73.71643 33003 ft 456 kts 218°
2026-04-22 19:05 39.94366 -73.73597 33168 ft 463 kts 209°
2026-04-22 19:05 39.91390 -73.75220 33348 ft 465 kts 207°
2026-04-22 19:05 39.88380 -73.76792 33530 ft 465 kts 207°
2026-04-22 19:06 39.85383 -73.78363 33693 ft 465 kts 207°
2026-04-22 19:06 39.82383 -73.79947 33862 ft 465 kts 207°
2026-04-22 19:06 39.79383 -73.81539 34028 ft 465 kts 208°
2026-04-22 19:07 39.73391 -73.84724 34319 ft 465 kts 208°
2026-04-22 19:07 39.70396 -73.86315 34466 ft 465 kts 208°
2026-04-22 19:07 39.67404 -73.87903 34604 ft 465 kts 208°
2026-04-22 19:07 39.64407 -73.89493 34739 ft 465 kts 207°
2026-04-22 19:08 39.61410 -73.91079 34863 ft 465 kts 207°
2026-04-22 19:08 39.58414 -73.92664 34984 ft 465 kts 207°
2026-04-22 19:08 39.55459 -73.94224 35117 ft 465 kts 207°
2026-04-22 19:08 39.52465 -73.95802 35234 ft 464 kts 207°
2026-04-22 19:09 39.49474 -73.97382 35372 ft 464 kts 207°
2026-04-22 19:09 39.46480 -73.98960 35510 ft 464 kts 207°
2026-04-22 19:09 39.44498 -74.00001 35589 ft 463 kts 207°
2026-04-22 19:09 39.40675 -74.02457 35715 ft 455 kts 219°
2026-04-22 19:10 39.38186 -74.04929 35796 ft 449 kts 225°
2026-04-22 19:10 39.35809 -74.07554 35897 ft 449 kts 226°
2026-04-22 19:10 39.33442 -74.10193 35999 ft 449 kts 226°
2026-04-22 19:11 39.28681 -74.15414 36101 ft 449 kts 226°
2026-04-22 19:11 39.23909 -74.20615 36081 ft 449 kts 226°
2026-04-22 19:12 39.19141 -74.25805 36074 ft 449 kts 226°
2026-04-22 19:12 39.14363 -74.30990 36074 ft 449 kts 226°
2026-04-22 19:13 39.09588 -74.36165 36076 ft 449 kts 225°
2026-04-22 19:13 39.04806 -74.41333 36078 ft 449 kts 225°
2026-04-22 19:14 39.00046 -74.46463 36079 ft 450 kts 225°
2026-04-22 19:14 38.95259 -74.51619 36073 ft 448 kts 225°
2026-04-22 19:15 38.91341 -74.56077 36081 ft 449 kts 228°
2026-04-22 19:15 38.86749 -74.61462 36080 ft 447 kts 228°
2026-04-22 19:16 38.82176 -74.66820 36077 ft 447 kts 228°
2026-04-22 19:16 38.77578 -74.72196 36075 ft 448 kts 228°
2026-04-22 19:17 38.72856 -74.77435 36081 ft 448 kts 225°
2026-04-22 19:17 38.68004 -74.82491 36077 ft 451 kts 225°
2026-04-22 19:18 38.63144 -74.87542 36078 ft 449 kts 225°
2026-04-22 19:18 38.58273 -74.92608 36074 ft 450 kts 224°
2026-04-22 19:19 38.53414 -74.97651 36069 ft 451 kts 225°
2026-04-22 19:19 38.48683 -75.02886 36068 ft 448 kts 226°
2026-04-22 19:20 38.43794 -75.07883 36069 ft 454 kts 222°
2026-04-22 19:20 38.38777 -75.12645 36067 ft 451 kts 222°
2026-04-22 19:21 38.33720 -75.17439 36065 ft 453 kts 222°
2026-04-22 19:21 38.28680 -75.22213 36066 ft 452 kts 222°
2026-04-22 19:22 38.23624 -75.27002 36068 ft 451 kts 222°
2026-04-22 19:22 38.18570 -75.31773 36070 ft 454 kts 222°
2026-04-22 19:23 38.13517 -75.36535 36078 ft 451 kts 222°
2026-04-22 19:23 38.08450 -75.41308 36084 ft 453 kts 221°
2026-04-22 19:24 38.03375 -75.45954 36087 ft 454 kts 220°
2026-04-22 19:24 37.98159 -75.50506 36088 ft 453 kts 219°
2026-04-22 19:25 37.92957 -75.55033 36088 ft 454 kts 219°
2026-04-22 19:25 37.87751 -75.59567 36085 ft 453 kts 219°
2026-04-22 19:26 37.82523 -75.63961 36082 ft 457 kts 216°
2026-04-22 19:26 37.77059 -75.68057 36083 ft 456 kts 216°
2026-04-22 19:27 37.71579 -75.72156 36084 ft 457 kts 216°
2026-04-22 19:27 37.66115 -75.76256 36084 ft 456 kts 216°
2026-04-22 19:28 37.60652 -75.80345 36086 ft 456 kts 215°
2026-04-22 19:28 37.55185 -75.84427 36087 ft 457 kts 216°
2026-04-22 19:29 37.50096 -75.89026 36080 ft 452 kts 224°
2026-04-22 19:29 37.45201 -75.94006 36059 ft 450 kts 224°
2026-04-22 19:30 37.41130 -75.98126 36060 ft 454 kts 223°
2026-04-22 19:30 37.35395 -76.03900 36057 ft 452 kts 223°
2026-04-22 19:31 37.30467 -76.08855 36061 ft 452 kts 223°
2026-04-22 19:31 37.25568 -76.13789 36063 ft 454 kts 223°
2026-04-22 19:32 37.20647 -76.18722 36062 ft 451 kts 223°
2026-04-22 19:32 37.15721 -76.23655 36061 ft 453 kts 223°
2026-04-22 19:33 37.10810 -76.28557 36060 ft 452 kts 223°
2026-04-22 19:33 37.05886 -76.33463 36055 ft 451 kts 223°
2026-04-22 19:34 37.00992 -76.38327 36059 ft 453 kts 223°
2026-04-22 19:34 36.96064 -76.43222 36097 ft 452 kts 223°
2026-04-22 19:35 36.91135 -76.48113 36083 ft 452 kts 223°
2026-04-22 19:35 36.86206 -76.52987 36091 ft 452 kts 223°
2026-04-22 19:36 36.81263 -76.57874 36094 ft 452 kts 223°
2026-04-22 19:36 36.76325 -76.62743 36093 ft 453 kts 223°
2026-04-22 19:37 36.71385 -76.67604 36085 ft 453 kts 223°
2026-04-22 19:37 36.66446 -76.72460 36096 ft 452 kts 223°
2026-04-22 19:38 36.61526 -76.77289 36093 ft 453 kts 223°
2026-04-22 19:38 36.56573 -76.82140 36091 ft 452 kts 223°
2026-04-22 19:39 36.51614 -76.86973 36091 ft 452 kts 223°
2026-04-22 19:39 36.46658 -76.91803 36077 ft 453 kts 222°
2026-04-22 19:40 36.41700 -76.96630 36100 ft 452 kts 222°
2026-04-22 19:40 36.36745 -77.01454 36107 ft 452 kts 222°
2026-04-22 19:41 36.31786 -77.06272 36104 ft 452 kts 222°
2026-04-22 19:41 36.26868 -77.11062 36103 ft 452 kts 222°
2026-04-22 19:42 36.21915 -77.15869 36105 ft 452 kts 222°
2026-04-22 19:42 36.16947 -77.20670 36107 ft 452 kts 222°
2026-04-22 19:43 36.09505 -77.27856 36109 ft 453 kts 222°
2026-04-22 19:43 36.04537 -77.32637 36114 ft 452 kts 222°
2026-04-22 19:44 35.99611 -77.37404 36115 ft 452 kts 222°
2026-04-22 19:44 35.94669 -77.42191 36097 ft 452 kts 222°
2026-04-22 19:45 35.89715 -77.46972 36096 ft 451 kts 222°
2026-04-22 19:45 35.84755 -77.51744 36099 ft 452 kts 222°
2026-04-22 19:46 35.79807 -77.56515 36101 ft 452 kts 222°
2026-04-22 19:46 35.74849 -77.61285 36110 ft 452 kts 222°
2026-04-22 19:47 35.69878 -77.66052 36123 ft 452 kts 222°
2026-04-22 19:47 35.64952 -77.70776 36137 ft 451 kts 222°
2026-04-22 19:48 35.59994 -77.75517 36134 ft 452 kts 221°
2026-04-22 19:48 35.55029 -77.80253 36131 ft 452 kts 221°
2026-04-22 19:49 35.50063 -77.84989 36124 ft 451 kts 221°
2026-04-22 19:49 35.45101 -77.89717 36131 ft 452 kts 221°
2026-04-22 19:50 35.40135 -77.94433 36126 ft 452 kts 221°
2026-04-22 19:50 35.35159 -77.99156 36154 ft 451 kts 221°
2026-04-22 19:51 35.30190 -78.03864 36155 ft 451 kts 221°
2026-04-22 19:51 35.25249 -78.08536 36157 ft 451 kts 221°
2026-04-22 19:52 35.20282 -78.13226 36155 ft 451 kts 221°
2026-04-22 19:52 35.15296 -78.17915 36150 ft 451 kts 221°
2026-04-22 19:53 35.10317 -78.22583 36159 ft 451 kts 221°
2026-04-22 19:53 35.05339 -78.27257 36157 ft 451 kts 221°
2026-04-22 19:54 35.00362 -78.31924 36162 ft 451 kts 221°
2026-04-22 19:54 34.95391 -78.36585 36158 ft 451 kts 221°
2026-04-22 19:55 34.90419 -78.41254 36155 ft 451 kts 221°
2026-04-22 19:55 34.85481 -78.45878 36155 ft 451 kts 221°
2026-04-22 19:56 34.80496 -78.50526 36164 ft 451 kts 221°
2026-04-22 19:56 34.75522 -78.55161 36171 ft 451 kts 221°
2026-04-22 19:57 34.70541 -78.59786 36188 ft 451 kts 221°
2026-04-22 19:57 34.65554 -78.64416 36178 ft 451 kts 221°
2026-04-22 19:58 34.60565 -78.69045 36177 ft 451 kts 221°
2026-04-22 19:58 34.55577 -78.73663 36177 ft 451 kts 221°
2026-04-22 20:00 34.37902 -78.89442 36187 ft 453 kts 218°
2026-04-22 20:01 34.32741 -78.93802 36187 ft 452 kts 218°
2026-04-22 20:01 34.27584 -78.98164 36188 ft 452 kts 218°
2026-04-22 20:02 34.23300 -79.01767 36187 ft 452 kts 218°
2026-04-22 20:02 34.17259 -79.06832 36185 ft 452 kts 218°
2026-04-22 20:03 34.12098 -79.11165 36182 ft 452 kts 218°
2026-04-22 20:03 34.07807 -79.14759 36185 ft 452 kts 218°
2026-04-22 20:04 34.02636 -79.19084 36190 ft 452 kts 218°
2026-04-22 20:04 33.97476 -79.23397 36196 ft 451 kts 218°
2026-04-22 20:05 33.92316 -79.27699 36198 ft 451 kts 218°
2026-04-22 20:05 33.87155 -79.31999 36197 ft 451 kts 218°
2026-04-22 20:06 33.82001 -79.36288 36202 ft 451 kts 218°
2026-04-22 20:06 33.76872 -79.40544 36207 ft 451 kts 218°
2026-04-22 20:07 33.71719 -79.44813 36207 ft 450 kts 218°
2026-04-22 20:07 33.66567 -79.49085 36212 ft 450 kts 218°
2026-04-22 20:08 33.61419 -79.53342 36209 ft 449 kts 218°
2026-04-22 20:08 33.56262 -79.57600 36213 ft 449 kts 218°
2026-04-22 20:09 33.51117 -79.61844 36211 ft 449 kts 218°
2026-04-22 20:09 33.45977 -79.66070 36211 ft 447 kts 218°
2026-04-22 20:10 33.40852 -79.70284 36213 ft 446 kts 218°
2026-04-22 20:10 33.35731 -79.74485 36214 ft 446 kts 218°
2026-04-22 20:11 33.30616 -79.78670 36210 ft 445 kts 218°
2026-04-22 20:11 33.25507 -79.82853 36210 ft 444 kts 218°
2026-04-22 20:12 33.20410 -79.87017 36207 ft 444 kts 218°
2026-04-22 20:12 33.15331 -79.91155 36209 ft 444 kts 218°
2026-04-22 20:13 33.10236 -79.95309 36208 ft 443 kts 218°
2026-04-22 20:13 33.05139 -79.99453 36210 ft 443 kts 218°
2026-04-22 20:14 33.00050 -80.03588 36219 ft 442 kts 218°
2026-04-22 20:14 32.94994 -80.07689 36216 ft 442 kts 218°
2026-04-22 20:15 32.89909 -80.11813 36220 ft 442 kts 218°
2026-04-22 20:15 32.84829 -80.15920 36219 ft 441 kts 218°
2026-04-22 20:16 32.79739 -80.20026 36219 ft 441 kts 218°
2026-04-22 20:16 32.74656 -80.24127 36239 ft 441 kts 218°
2026-04-22 20:17 32.69616 -80.28190 36244 ft 440 kts 218°
2026-04-22 20:17 32.64539 -80.32276 36245 ft 440 kts 218°
2026-04-22 20:18 32.59464 -80.36347 36246 ft 440 kts 218°
2026-04-22 20:18 32.54209 -80.40130 36257 ft 442 kts 213°
2026-04-22 20:19 32.48861 -80.43733 36259 ft 442 kts 213°
2026-04-22 20:19 32.43545 -80.47306 36260 ft 442 kts 213°
2026-04-22 20:20 32.38194 -80.50908 36261 ft 442 kts 213°
2026-04-22 20:20 32.32848 -80.54510 36255 ft 441 kts 213°
2026-04-22 20:21 32.27541 -80.58080 36261 ft 441 kts 213°
2026-04-22 20:21 32.22210 -80.61663 36259 ft 441 kts 213°
2026-04-22 20:22 32.16877 -80.65236 36257 ft 441 kts 213°
2026-04-22 20:22 32.11547 -80.68807 36260 ft 440 kts 213°
2026-04-22 20:23 32.06220 -80.72362 36254 ft 440 kts 213°
2026-04-22 20:23 32.00893 -80.75921 36249 ft 439 kts 213°
2026-04-22 20:24 31.95578 -80.79463 36247 ft 439 kts 213°
2026-04-22 20:24 31.90266 -80.83002 36231 ft 438 kts 213°
2026-04-22 20:25 31.84956 -80.86533 36232 ft 438 kts 213°
2026-04-22 20:25 31.79693 -80.90031 36235 ft 437 kts 214°
2026-04-22 20:26 31.74396 -80.93543 36241 ft 437 kts 214°
2026-04-22 20:26 31.69094 -80.97047 36248 ft 436 kts 214°
2026-04-22 20:27 31.63811 -81.00537 36248 ft 436 kts 214°
2026-04-22 20:27 31.58524 -81.04018 36247 ft 436 kts 213°
2026-04-22 20:28 31.53152 -81.07324 36246 ft 436 kts 212°
2026-04-22 20:28 31.47783 -81.10612 36247 ft 435 kts 212°
2026-04-22 20:29 31.42469 -81.13868 36252 ft 434 kts 212°
2026-04-22 20:29 31.37122 -81.17140 36252 ft 433 kts 212°
2026-04-22 20:30 31.31738 -81.20340 36248 ft 433 kts 212°
2026-04-22 20:30 31.26365 -81.23520 36244 ft 432 kts 212°
2026-04-22 20:31 31.20989 -81.26670 36239 ft 434 kts 210°
2026-04-22 20:31 31.18129 -81.27855 36235 ft 441 kts 199°
2026-04-22 20:31 31.15059 -81.28354 36243 ft 451 kts 188°
2026-04-22 20:32 31.08748 -81.28324 36249 ft 453 kts 185°
2026-04-22 20:32 31.02446 -81.28260 36237 ft 453 kts 186°
2026-04-22 20:33 30.96144 -81.28238 36248 ft 453 kts 186°
2026-04-22 20:33 30.89844 -81.28217 36245 ft 452 kts 186°
2026-04-22 20:34 30.83554 -81.28201 36257 ft 451 kts 186°
2026-04-22 20:34 30.77306 -81.28200 36263 ft 451 kts 187°
2026-04-22 20:35 30.71020 -81.28199 36265 ft 451 kts 187°
2026-04-22 20:35 30.64736 -81.28191 36256 ft 452 kts 187°
2026-04-22 20:36 30.58436 -81.28043 36259 ft 455 kts 184°
2026-04-22 20:36 30.52110 -81.27574 36256 ft 455 kts 183°
2026-04-22 20:37 30.45792 -81.27094 36255 ft 455 kts 183°
2026-04-22 20:37 30.39471 -81.26610 36249 ft 455 kts 183°
2026-04-22 20:37 30.36309 -81.26368 35917 ft 454 kts 184°
2026-04-22 20:38 30.33149 -81.26133 35641 ft 455 kts 184°
2026-04-22 20:38 30.30029 -81.25898 35390 ft 455 kts 184°
2026-04-22 20:38 30.26872 -81.25663 35147 ft 455 kts 184°
2026-04-22 20:38 30.23707 -81.25429 34910 ft 456 kts 184°
2026-04-22 20:39 30.20545 -81.25188 34671 ft 456 kts 184°
2026-04-22 20:39 30.17377 -81.24948 34448 ft 457 kts 184°
2026-04-22 20:39 30.14207 -81.24712 34101 ft 457 kts 184°
2026-04-22 20:39 30.11043 -81.24474 33496 ft 455 kts 183°
2026-04-22 20:40 30.07861 -81.24237 32856 ft 455 kts 183°
2026-04-22 20:40 30.04694 -81.24003 32202 ft 456 kts 183°
2026-04-22 20:40 30.01529 -81.23769 31527 ft 456 kts 182°
2026-04-22 20:40 29.98358 -81.23536 30842 ft 458 kts 182°
2026-04-22 20:41 29.95176 -81.23297 30118 ft 459 kts 182°
2026-04-22 20:41 29.91984 -81.23059 29349 ft 459 kts 182°
2026-04-22 20:41 29.88801 -81.22817 28679 ft 457 kts 182°
2026-04-22 20:41 29.85626 -81.22580 28057 ft 455 kts 181°
2026-04-22 20:42 29.82522 -81.22351 27466 ft 452 kts 181°
2026-04-22 20:42 29.79394 -81.22120 26849 ft 449 kts 181°
2026-04-22 20:42 29.76271 -81.21887 26246 ft 447 kts 181°
2026-04-22 20:42 29.73173 -81.21658 25667 ft 444 kts 181°
2026-04-22 20:43 29.70104 -81.21429 25077 ft 441 kts 181°
2026-04-22 20:43 29.67049 -81.21177 24490 ft 439 kts 180°
2026-04-22 20:43 29.64001 -81.20912 23883 ft 438 kts 180°
2026-04-22 20:43 29.60966 -81.20648 23201 ft 436 kts 180°
2026-04-22 20:44 29.57950 -81.20383 22557 ft 433 kts 180°
2026-04-22 20:44 29.54992 -81.20126 21915 ft 430 kts 180°
2026-04-22 20:44 29.52012 -81.19870 21290 ft 427 kts 180°
2026-04-22 20:44 29.49063 -81.19616 20691 ft 424 kts 180°
2026-04-22 20:45 29.46127 -81.19365 20095 ft 421 kts 180°
2026-04-22 20:45 29.43221 -81.19119 19483 ft 418 kts 180°
2026-04-22 20:45 29.40323 -81.18871 18883 ft 416 kts 180°
2026-04-22 20:45 29.37435 -81.18623 18245 ft 415 kts 179°
2026-04-22 20:46 29.31725 -81.18136 16849 ft 409 kts 179°
2026-04-22 20:46 29.28889 -81.17894 16249 ft 404 kts 178°
2026-04-22 20:46 29.26132 -81.17653 15936 ft 391 kts 178°
2026-04-22 20:47 29.23470 -81.17416 15716 ft 377 kts 178°
2026-04-22 20:47 29.20904 -81.17186 15542 ft 362 kts 178°
2026-04-22 20:47 29.18437 -81.16814 15275 ft 354 kts 168°
2026-04-22 20:47 29.16102 -81.15932 14806 ft 353 kts 162°
2026-04-22 20:48 29.13846 -81.14943 14386 ft 349 kts 161°
2026-04-22 20:48 29.11605 -81.13955 14032 ft 342 kts 161°
2026-04-22 20:48 29.09413 -81.13003 13788 ft 330 kts 161°
2026-04-22 20:48 29.07302 -81.12094 13619 ft 318 kts 162°
2026-04-22 20:49 29.05271 -81.11227 13463 ft 306 kts 162°
2026-04-22 20:49 29.03288 -81.10433 13134 ft 300 kts 163°
2026-04-22 20:49 29.01310 -81.09687 12669 ft 300 kts 163°
2026-04-22 20:49 28.99336 -81.08944 12290 ft 296 kts 163°
2026-04-22 20:50 28.97377 -81.08250 11909 ft 292 kts 169°
2026-04-22 20:50 28.95376 -81.07915 11482 ft 291 kts 175°
2026-04-22 20:50 28.93368 -81.07693 11110 ft 288 kts 175°
2026-04-22 20:50 28.91382 -81.07475 10764 ft 285 kts 174°
2026-04-22 20:51 28.90075 -81.07330 10488 ft 285 kts 175°
2026-04-22 20:51 28.88098 -81.07451 9990 ft 287 kts 194°
2026-04-22 20:51 28.86310 -81.08445 9605 ft 285 kts 212°
2026-04-22 20:51 28.84701 -81.09747 9203 ft 284 kts 214°
2026-04-22 20:52 28.83090 -81.11074 8659 ft 287 kts 214°
2026-04-22 20:52 28.81474 -81.12389 8347 ft 283 kts 214°
2026-04-22 20:52 28.79876 -81.13673 7961 ft 281 kts 214°
2026-04-22 20:52 28.78274 -81.14952 7534 ft 281 kts 214°
2026-04-22 20:53 28.76675 -81.16240 7123 ft 281 kts 218°
2026-04-22 20:53 28.75508 -81.17979 6924 ft 276 kts 243°
2026-04-22 20:53 28.74718 -81.19929 6658 ft 272 kts 245°
2026-04-22 20:53 28.73934 -81.21881 6319 ft 269 kts 244°
2026-04-22 20:54 28.73142 -81.23782 5977 ft 268 kts 243°
2026-04-22 20:54 28.72322 -81.25693 5631 ft 268 kts 242°
2026-04-22 20:54 28.71495 -81.27595 5275 ft 267 kts 242°
2026-04-22 20:54 28.70664 -81.29478 4933 ft 266 kts 242°
2026-04-22 20:55 28.69829 -81.31362 4577 ft 267 kts 241°
2026-04-22 20:55 28.68970 -81.33293 4231 ft 279 kts 240°
2026-04-22 20:55 28.67790 -81.34951 3981 ft 267 kts 211°
2026-04-22 20:55 28.66136 -81.35594 3942 ft 243 kts 176°
2026-04-22 20:56 28.64595 -81.35131 3858 ft 221 kts 149°
2026-04-22 20:56 28.63348 -81.34238 3641 ft 204 kts 144°
2026-04-22 20:56 28.62141 -81.33469 3419 ft 197 kts 154°
2026-04-22 20:56 28.60894 -81.33050 3265 ft 176 kts 164°
2026-04-22 20:57 28.59739 -81.32899 3055 ft 160 kts 172°
2026-04-22 20:57 28.58673 -81.32851 2802 ft 147 kts 173°
2026-04-22 20:57 28.57661 -81.32831 2593 ft 146 kts 174°
2026-04-22 20:57 28.56649 -81.32819 2412 ft 145 kts 173°
2026-04-22 20:58 28.55641 -81.32808 2222 ft 144 kts 175°
2026-04-22 20:58 28.54636 -81.32796 2043 ft 145 kts 173°
2026-04-22 20:58 28.53628 -81.32786 1842 ft 145 kts 174°
2026-04-22 20:58 28.52623 -81.32775 1658 ft 144 kts 173°
2026-04-22 20:59 28.51620 -81.32764 1464 ft 144 kts 174°
2026-04-22 20:59 28.50620 -81.32753 1289 ft 144 kts 174°
2026-04-22 20:59 28.49613 -81.32743 1093 ft 143 kts 174°
2026-04-22 20:59 28.48650 -81.32731 876 ft 142 kts 174°
2026-04-22 21:00 28.47671 -81.32713 658 ft 143 kts 174°
2026-04-22 21:00 28.46671 -81.32719 455 ft 142 kts 175°
2026-04-22 21:00 28.45704 -81.32720 296 ft 140 kts 172°
2026-04-22 21:00 28.44721 -81.32702 118 ft 139 kts 173°
2026-04-22 21:01 28.43889 -81.32685 103 ft 87 kts 180°
2026-04-22 21:01 28.43541 -81.32671 104 ft 38 kts 181°
2026-04-22 21:01 28.43280 -81.32674 107 ft 37 kts 177°
2026-04-22 21:01 28.43064 -81.32565 104 ft 34 kts 108°
2026-04-22 21:02 28.43055 -81.32301 103 ft 34 kts 85°
2026-04-22 21:02 28.43047 -81.32038 102 ft 32 kts 124°
2026-04-22 21:02 28.42842 -81.31993 104 ft 32 kts 180°
2026-04-22 21:02 28.42615 -81.31990 109 ft 33 kts 179°
2026-04-22 21:03 28.42381 -81.31987 108 ft 34 kts 179°
2026-04-22 21:03 28.42138 -81.31985 104 ft 36 kts 178°
2026-04-22 21:03 28.41888 -81.31979 103 ft 36 kts 179°
2026-04-22 21:03 28.41634 -81.31977 103 ft 34 kts 178°
2026-04-22 21:04 28.41480 -81.31913 103 ft 24 kts 171°
2026-04-22 21:04 28.41336 -81.31853 104 ft 24 kts 107°
2026-04-22 21:04 28.41319 -81.31660 102 ft 25 kts 86°
2026-04-22 21:04 28.41364 -81.31526 101 ft 16 kts 75°
2026-04-22 21:05 28.41370 -81.31462 101 ft 6 kts 89°
2026-04-22 21:05 28.41369 -81.31453 101 ft 0 kts 91°